Year,Month,Day,Hour,Minute,Value (Times are PST for temperature in C)
2010,05,06,00,00,4.90
2010,05,06,00,01,4.90
2010,05,06,00,02,4.80
2010,05,06,00,03,4.80
2010,05,06,00,04,4.70
2010,05,06,00,05,4.70
2010,05,06,00,06,4.70
2010,05,06,00,07,4.60
2010,05,06,00,08,4.60
2010,05,06,00,09,4.60
2010,05,06,00,10,4.50
2010,05,06,00,11,4.40
2010,05,06,00,12,4.40
2010,05,06,00,13,4.40
2010,05,06,00,14,4.40
2010,05,06,00,15,4.30
2010,05,06,00,16,4.30
2010,05,06,00,17,4.30
2010,05,06,00,18,4.30
2010,05,06,00,19,4.30
2010,05,06,00,20,4.20
2010,05,06,00,21,4.20
2010,05,06,00,22,4.20
2010,05,06,00,23,4.20
2010,05,06,00,24,4.20
2010,05,06,00,25,4.20
2010,05,06,00,26,4.20
2010,05,06,00,27,4.10
2010,05,06,00,28,4.10
2010,05,06,00,29,4.10
2010,05,06,00,30,4.00
2010,05,06,00,31,4.00
2010,05,06,00,32,3.90
2010,05,06,00,33,3.90
2010,05,06,00,34,3.90
2010,05,06,00,35,3.90
2010,05,06,00,36,3.80
2010,05,06,00,37,3.80
2010,05,06,00,38,3.80
2010,05,06,00,39,3.80
2010,05,06,00,40,3.70
2010,05,06,00,41,3.70
2010,05,06,00,42,3.70
2010,05,06,00,43,3.70
2010,05,06,00,44,3.70
2010,05,06,00,45,3.70
2010,05,06,00,46,3.70
2010,05,06,00,47,3.60
2010,05,06,00,48,3.60
2010,05,06,00,49,3.60
2010,05,06,00,50,3.60
2010,05,06,00,51,3.60
2010,05,06,00,52,3.60
2010,05,06,00,53,3.60
2010,05,06,00,54,3.60
2010,05,06,00,55,3.60
2010,05,06,00,56,3.60
2010,05,06,00,57,3.60
2010,05,06,00,58,3.60
2010,05,06,00,59,3.60
2010,05,06,01,00,3.60
2010,05,06,01,01,3.60
2010,05,06,01,02,3.60
2010,05,06,01,03,3.60
2010,05,06,01,04,3.60
2010,05,06,01,05,3.60
2010,05,06,01,06,3.60
2010,05,06,01,07,3.60
2010,05,06,01,08,3.60
2010,05,06,01,09,3.60
2010,05,06,01,10,3.60
2010,05,06,01,11,3.60
2010,05,06,01,12,3.60
2010,05,06,01,13,3.50
2010,05,06,01,14,3.50
2010,05,06,01,15,3.50
2010,05,06,01,16,3.50
2010,05,06,01,17,3.50
2010,05,06,01,18,3.50
2010,05,06,01,19,3.50
2010,05,06,01,20,3.50
2010,05,06,01,21,3.60
2010,05,06,01,22,3.60
2010,05,06,01,23,3.60
2010,05,06,01,24,3.60
2010,05,06,01,25,3.70
2010,05,06,01,26,3.70
2010,05,06,01,27,3.70
2010,05,06,01,28,3.70
2010,05,06,01,29,3.70
2010,05,06,01,30,3.70
2010,05,06,01,31,3.70
2010,05,06,01,32,3.70
2010,05,06,01,33,3.70
2010,05,06,01,34,3.70
2010,05,06,01,35,3.70
2010,05,06,01,36,3.80
2010,05,06,01,37,3.80
2010,05,06,01,38,3.90
2010,05,06,01,39,3.90
2010,05,06,01,40,3.90
2010,05,06,01,41,4.00
2010,05,06,01,42,4.10
2010,05,06,01,43,4.20
2010,05,06,01,44,4.30
2010,05,06,01,45,4.30
2010,05,06,01,46,4.40
2010,05,06,01,47,4.50
2010,05,06,01,48,4.50
2010,05,06,01,49,4.60
2010,05,06,01,50,4.60
2010,05,06,01,51,4.60
2010,05,06,01,52,4.60
2010,05,06,01,53,4.50
2010,05,06,01,54,4.50
2010,05,06,01,55,4.40
2010,05,06,01,56,4.30
2010,05,06,01,57,4.20
2010,05,06,01,58,4.20
2010,05,06,01,59,4.10
2010,05,06,02,00,4.00
2010,05,06,02,01,4.00
2010,05,06,02,02,3.90
2010,05,06,02,03,3.80
2010,05,06,02,04,3.80
2010,05,06,02,05,3.70
2010,05,06,02,06,3.70
2010,05,06,02,07,3.60
2010,05,06,02,08,3.60
2010,05,06,02,09,3.50
2010,05,06,02,10,3.50
2010,05,06,02,11,3.50
2010,05,06,02,12,3.40
2010,05,06,02,13,3.40
2010,05,06,02,14,3.40
2010,05,06,02,15,3.40
2010,05,06,02,16,3.40
2010,05,06,02,17,3.30
2010,05,06,02,18,3.30
2010,05,06,02,19,3.30
2010,05,06,02,20,3.30
2010,05,06,02,21,3.30
2010,05,06,02,22,3.30
2010,05,06,02,23,3.20
2010,05,06,02,24,3.20
2010,05,06,02,25,3.20
2010,05,06,02,26,3.10
2010,05,06,02,27,3.10
2010,05,06,02,28,3.10
2010,05,06,02,29,3.10
2010,05,06,02,30,3.10
2010,05,06,02,31,3.10
2010,05,06,02,32,3.10
2010,05,06,02,33,3.10
2010,05,06,02,34,3.10
2010,05,06,02,35,3.10
2010,05,06,02,36,3.20
2010,05,06,02,37,3.20
2010,05,06,02,38,3.20
2010,05,06,02,39,3.20
2010,05,06,02,40,3.20
2010,05,06,02,41,3.10
2010,05,06,02,42,3.10
2010,05,06,02,43,3.10
2010,05,06,02,44,3.00
2010,05,06,02,45,3.00
2010,05,06,02,46,2.90
2010,05,06,02,47,2.90
2010,05,06,02,48,2.90
2010,05,06,02,49,2.90
2010,05,06,02,50,2.90
2010,05,06,02,51,2.90
2010,05,06,02,52,2.90
2010,05,06,02,53,2.90
2010,05,06,02,54,2.80
2010,05,06,02,55,2.80
2010,05,06,02,56,2.80
2010,05,06,02,57,2.80
2010,05,06,02,58,2.80
2010,05,06,02,59,2.80
2010,05,06,03,00,2.80
2010,05,06,03,01,2.70
2010,05,06,03,02,2.70
2010,05,06,03,06,2.70
2010,05,06,03,07,2.70
2010,05,06,03,08,2.70
2010,05,06,03,09,2.70
2010,05,06,03,10,2.70
2010,05,06,03,11,2.70
2010,05,06,03,12,2.70
2010,05,06,03,13,2.70
2010,05,06,03,14,2.70
2010,05,06,03,15,2.70
2010,05,06,03,16,2.70
2010,05,06,03,17,2.70
2010,05,06,03,18,2.70
2010,05,06,03,19,2.70
2010,05,06,03,20,2.70
2010,05,06,03,21,2.80
2010,05,06,03,22,2.80
2010,05,06,03,23,2.80
2010,05,06,03,24,2.80
2010,05,06,03,25,2.80
2010,05,06,03,26,2.90
2010,05,06,03,27,2.90
2010,05,06,03,28,3.00
2010,05,06,03,29,3.10
2010,05,06,03,30,3.10
2010,05,06,03,31,3.20
2010,05,06,03,32,3.20
2010,05,06,03,33,3.20
2010,05,06,03,34,3.30
2010,05,06,03,35,3.30
2010,05,06,03,36,3.30
2010,05,06,03,37,3.30
2010,05,06,03,38,3.20
2010,05,06,03,39,3.20
2010,05,06,03,40,3.10
2010,05,06,03,41,3.10
2010,05,06,03,42,3.00
2010,05,06,03,43,3.00
2010,05,06,03,44,2.90
2010,05,06,03,45,2.90
2010,05,06,03,46,2.80
2010,05,06,03,47,2.80
2010,05,06,03,48,2.80
2010,05,06,03,49,2.80
2010,05,06,03,50,2.80
2010,05,06,03,51,2.80
2010,05,06,03,52,2.80
2010,05,06,03,53,2.80
2010,05,06,03,54,2.90
2010,05,06,03,55,3.00
2010,05,06,03,56,3.10
2010,05,06,03,57,3.20
2010,05,06,03,58,3.30
2010,05,06,03,59,3.40
2010,05,06,04,00,3.40
2010,05,06,04,01,3.40
2010,05,06,04,02,3.50
2010,05,06,04,03,3.50
2010,05,06,04,04,3.50
2010,05,06,04,05,3.50
2010,05,06,04,06,3.50
2010,05,06,04,07,3.40
2010,05,06,04,08,3.40
2010,05,06,04,09,3.30
2010,05,06,04,10,3.30
2010,05,06,04,11,3.20
2010,05,06,04,12,3.20
2010,05,06,04,13,3.20
2010,05,06,04,14,3.30
2010,05,06,04,15,3.30
2010,05,06,04,16,3.30
2010,05,06,04,17,3.30
2010,05,06,04,18,3.30
2010,05,06,04,19,3.30
2010,05,06,04,20,3.30
2010,05,06,04,21,3.30
2010,05,06,04,22,3.30
2010,05,06,04,23,3.20
2010,05,06,04,24,3.20
2010,05,06,04,25,3.20
2010,05,06,04,26,3.20
2010,05,06,04,27,3.20
2010,05,06,04,28,3.10
2010,05,06,04,29,3.10
2010,05,06,04,30,3.00
2010,05,06,04,31,3.00
2010,05,06,04,32,2.90
2010,05,06,04,33,2.80
2010,05,06,04,34,2.80
2010,05,06,04,35,2.80
2010,05,06,04,36,2.70
2010,05,06,04,37,2.70
2010,05,06,04,38,2.70
2010,05,06,04,39,2.70
2010,05,06,04,40,2.70
2010,05,06,04,41,2.70
2010,05,06,04,42,2.70
2010,05,06,04,43,2.70
2010,05,06,04,44,2.70
2010,05,06,04,45,2.70
2010,05,06,04,46,2.70
2010,05,06,04,47,2.70
2010,05,06,04,48,2.70
2010,05,06,04,49,2.70
2010,05,06,04,50,2.70
2010,05,06,04,51,2.70
2010,05,06,04,52,2.60
2010,05,06,04,53,2.60
2010,05,06,04,54,2.60
2010,05,06,04,55,2.60
2010,05,06,04,56,2.50
2010,05,06,04,57,2.50
2010,05,06,04,58,2.40
2010,05,06,04,59,2.40
2010,05,06,05,00,2.40
2010,05,06,05,01,2.30
2010,05,06,05,02,2.30
2010,05,06,05,03,2.30
2010,05,06,05,04,2.30
2010,05,06,05,05,2.20
2010,05,06,05,06,2.20
2010,05,06,05,07,2.20
2010,05,06,05,08,2.10
2010,05,06,05,09,2.10
2010,05,06,05,10,2.10
2010,05,06,05,11,2.10
2010,05,06,05,12,2.00
2010,05,06,05,13,2.00
2010,05,06,05,14,1.90
2010,05,06,05,15,1.90
2010,05,06,05,16,1.90
2010,05,06,05,17,1.90
2010,05,06,05,18,1.90
2010,05,06,05,19,1.80
2010,05,06,05,20,1.80
2010,05,06,05,21,1.80
2010,05,06,05,22,1.90
2010,05,06,05,23,2.00
2010,05,06,05,24,2.10
2010,05,06,05,25,2.20
2010,05,06,05,26,2.30
2010,05,06,05,27,2.30
2010,05,06,05,28,2.40
2010,05,06,05,29,2.40
2010,05,06,05,30,2.40
2010,05,06,05,31,2.40
2010,05,06,05,32,2.40
2010,05,06,05,33,2.40
2010,05,06,05,34,2.30
2010,05,06,05,35,2.30
2010,05,06,05,36,2.30
2010,05,06,05,37,2.20
2010,05,06,05,38,2.10
2010,05,06,05,39,2.10
2010,05,06,05,40,2.10
2010,05,06,05,41,2.00
2010,05,06,05,42,2.10
2010,05,06,05,43,2.10
2010,05,06,05,44,2.10
2010,05,06,05,45,2.20
2010,05,06,05,46,2.20
2010,05,06,05,47,2.20
2010,05,06,05,48,2.10
2010,05,06,05,49,2.10
2010,05,06,05,50,2.10
2010,05,06,05,51,2.00
2010,05,06,05,52,2.00
2010,05,06,05,53,1.90
2010,05,06,05,54,1.90
2010,05,06,05,55,1.90
2010,05,06,05,56,1.80
2010,05,06,05,57,1.80
2010,05,06,05,58,1.80
2010,05,06,05,59,1.70
2010,05,06,06,00,1.70
2010,05,06,06,01,1.70
2010,05,06,06,02,1.70
2010,05,06,06,03,1.70
2010,05,06,06,04,1.70
2010,05,06,06,05,1.70
2010,05,06,06,06,1.70
2010,05,06,06,07,1.70
2010,05,06,06,08,1.70
2010,05,06,06,09,1.60
2010,05,06,06,10,1.60
2010,05,06,06,11,1.60
2010,05,06,06,12,1.60
2010,05,06,06,13,1.60
2010,05,06,06,14,1.60
2010,05,06,06,15,1.60
2010,05,06,06,16,1.70
2010,05,06,06,17,1.70
2010,05,06,06,18,1.70
2010,05,06,06,19,1.80
2010,05,06,06,20,1.80
2010,05,06,06,21,1.80
2010,05,06,06,22,1.80
2010,05,06,06,23,1.80
2010,05,06,06,24,1.80
2010,05,06,06,25,1.80
2010,05,06,06,26,1.80
2010,05,06,06,27,1.80
2010,05,06,06,28,1.80
2010,05,06,06,29,1.80
2010,05,06,06,30,1.80
2010,05,06,06,31,1.80
2010,05,06,06,32,1.80
2010,05,06,06,33,1.80
2010,05,06,06,34,1.80
2010,05,06,06,35,1.80
2010,05,06,06,36,1.70
2010,05,06,06,37,1.70
2010,05,06,06,38,1.70
2010,05,06,06,39,1.70
2010,05,06,06,40,1.70
2010,05,06,06,41,1.70
2010,05,06,06,42,1.70
2010,05,06,06,43,1.70
2010,05,06,06,44,1.70
2010,05,06,06,45,1.70
2010,05,06,06,46,1.70
2010,05,06,06,47,1.70
2010,05,06,06,48,1.80
2010,05,06,06,49,1.80
2010,05,06,06,50,1.80
2010,05,06,06,51,1.80
2010,05,06,06,52,1.80
2010,05,06,06,53,1.80
2010,05,06,06,54,1.80
2010,05,06,06,55,1.90
2010,05,06,06,56,1.90
2010,05,06,06,57,1.90
2010,05,06,06,58,1.90
2010,05,06,06,59,1.90
2010,05,06,07,00,2.00
2010,05,06,07,01,2.00
2010,05,06,07,02,2.00
2010,05,06,07,03,2.00
2010,05,06,07,04,2.00
2010,05,06,07,05,2.10
2010,05,06,07,06,2.10
2010,05,06,07,07,2.10
2010,05,06,07,08,2.10
2010,05,06,07,09,2.20
2010,05,06,07,10,2.30
2010,05,06,07,11,2.30
2010,05,06,07,12,2.40
2010,05,06,07,13,2.50
2010,05,06,07,14,2.50
2010,05,06,07,15,2.60
2010,05,06,07,16,2.70
2010,05,06,07,17,2.70
2010,05,06,07,18,2.70
2010,05,06,07,19,2.80
2010,05,06,07,20,2.80
2010,05,06,07,21,2.90
2010,05,06,07,22,2.90
2010,05,06,07,23,3.00
2010,05,06,07,24,3.00
2010,05,06,07,25,3.00
2010,05,06,07,26,3.10
2010,05,06,07,27,3.10
2010,05,06,07,28,3.20
2010,05,06,07,29,3.20
2010,05,06,07,30,3.30
2010,05,06,07,31,3.30
2010,05,06,07,32,3.30
2010,05,06,07,33,3.40
2010,05,06,07,34,3.40
2010,05,06,07,35,3.50
2010,05,06,07,36,3.60
2010,05,06,07,37,3.60
2010,05,06,07,38,3.70
2010,05,06,07,39,3.70
2010,05,06,07,40,3.80
2010,05,06,07,41,3.90
2010,05,06,07,42,4.00
2010,05,06,07,43,4.00
2010,05,06,07,44,4.10
2010,05,06,07,45,4.20
2010,05,06,07,46,4.30
2010,05,06,07,47,4.40
2010,05,06,07,48,4.50
2010,05,06,07,49,4.60
2010,05,06,07,50,4.70
2010,05,06,07,51,4.80
2010,05,06,07,52,4.90
2010,05,06,07,53,5.10
2010,05,06,07,54,5.30
2010,05,06,07,55,5.50
2010,05,06,07,56,5.80
2010,05,06,07,57,6.00
2010,05,06,07,58,6.20
2010,05,06,07,59,6.40
2010,05,06,08,00,6.60
2010,05,06,08,01,6.80
2010,05,06,08,02,6.90
2010,05,06,08,03,7.10
2010,05,06,08,04,7.20
2010,05,06,08,05,7.30
2010,05,06,08,06,7.40
2010,05,06,08,07,7.40
2010,05,06,08,08,7.50
2010,05,06,08,09,7.60
2010,05,06,08,10,7.60
2010,05,06,08,11,7.70
2010,05,06,08,12,7.70
2010,05,06,08,13,7.80
2010,05,06,08,14,7.90
2010,05,06,08,15,7.90
2010,05,06,08,16,8.00
2010,05,06,08,17,8.00
2010,05,06,08,18,8.10
2010,05,06,08,19,8.10
2010,05,06,08,20,8.20
2010,05,06,08,21,8.20
2010,05,06,08,22,8.20
2010,05,06,08,23,8.20
2010,05,06,08,24,8.20
2010,05,06,08,25,8.20
2010,05,06,08,26,8.20
2010,05,06,08,27,8.20
2010,05,06,08,28,8.10
2010,05,06,08,29,8.10
2010,05,06,08,30,8.10
2010,05,06,08,31,8.10
2010,05,06,08,32,8.10
2010,05,06,08,33,8.10
2010,05,06,08,34,8.10
2010,05,06,08,35,8.10
2010,05,06,08,36,8.20
2010,05,06,08,37,8.20
2010,05,06,08,38,8.30
2010,05,06,08,39,8.30
2010,05,06,08,40,8.40
2010,05,06,08,41,8.50
2010,05,06,08,42,8.50
2010,05,06,08,43,8.60
2010,05,06,08,44,8.60
2010,05,06,08,45,8.60
2010,05,06,08,46,8.60
2010,05,06,08,47,8.60
2010,05,06,08,48,8.60
2010,05,06,08,49,8.60
2010,05,06,08,50,8.60
2010,05,06,08,51,8.60
2010,05,06,08,52,8.60
2010,05,06,08,53,8.60
2010,05,06,08,54,8.50
2010,05,06,08,55,8.50
2010,05,06,08,56,8.50
2010,05,06,08,57,8.40
2010,05,06,08,58,8.40
2010,05,06,08,59,8.30
2010,05,06,09,00,8.30
2010,05,06,09,01,8.30
2010,05,06,09,02,8.30
2010,05,06,09,03,8.20
2010,05,06,09,04,8.20
2010,05,06,09,05,8.20
2010,05,06,09,06,8.20
2010,05,06,09,07,8.20
2010,05,06,09,08,8.20
2010,05,06,09,09,8.20
2010,05,06,09,10,8.20
2010,05,06,09,11,8.20
2010,05,06,09,12,8.20
2010,05,06,09,13,8.20
2010,05,06,09,14,8.20
2010,05,06,09,15,8.30
2010,05,06,09,16,8.30
2010,05,06,09,17,8.30
2010,05,06,09,18,8.30
2010,05,06,09,19,8.30
2010,05,06,09,20,8.30
2010,05,06,09,21,8.40
2010,05,06,09,22,8.40
2010,05,06,09,23,8.40
2010,05,06,09,24,8.40
2010,05,06,09,25,8.40
2010,05,06,09,26,8.40
2010,05,06,09,27,8.50
2010,05,06,09,28,8.50
2010,05,06,09,29,8.50
2010,05,06,09,30,8.60
2010,05,06,09,31,8.60
2010,05,06,09,32,8.60
2010,05,06,09,33,8.60
2010,05,06,09,34,8.70
2010,05,06,09,35,8.70
2010,05,06,09,36,8.70
2010,05,06,09,37,8.70
2010,05,06,09,38,8.70
2010,05,06,09,39,8.80
2010,05,06,09,40,8.80
2010,05,06,09,41,8.80
2010,05,06,09,42,8.90
2010,05,06,09,43,8.90
2010,05,06,09,44,8.90
2010,05,06,09,45,9.00
2010,05,06,09,46,9.00
2010,05,06,09,47,9.10
2010,05,06,09,48,9.10
2010,05,06,09,49,9.10
2010,05,06,09,50,9.10
2010,05,06,09,51,9.10
2010,05,06,09,52,9.00
2010,05,06,09,53,8.90
2010,05,06,09,54,8.80
2010,05,06,09,55,8.80
2010,05,06,09,56,8.70
2010,05,06,09,57,8.70
2010,05,06,09,58,8.70
2010,05,06,09,59,8.70
2010,05,06,10,00,8.70
2010,05,06,10,01,8.70
2010,05,06,10,02,8.70
2010,05,06,10,03,8.60
2010,05,06,10,04,8.60
2010,05,06,10,05,8.60
2010,05,06,10,06,8.60
2010,05,06,10,07,8.60
2010,05,06,10,08,8.60
2010,05,06,10,09,8.70
2010,05,06,10,10,8.70
2010,05,06,10,11,8.80
2010,05,06,10,12,8.80
2010,05,06,10,13,8.90
2010,05,06,10,14,9.00
2010,05,06,10,15,9.20
2010,05,06,10,16,9.30
2010,05,06,10,17,9.40
2010,05,06,10,18,9.60
2010,05,06,10,19,9.70
2010,05,06,10,20,9.80
2010,05,06,10,21,9.90
2010,05,06,10,22,9.90
2010,05,06,10,23,9.90
2010,05,06,10,24,9.90
2010,05,06,10,25,9.80
2010,05,06,10,26,9.70
2010,05,06,10,27,9.70
2010,05,06,10,28,9.60
2010,05,06,10,29,9.50
2010,05,06,10,30,9.40
2010,05,06,10,31,9.30
2010,05,06,10,32,9.20
2010,05,06,10,33,9.20
2010,05,06,10,34,9.10
2010,05,06,10,35,9.10
2010,05,06,10,36,9.10
2010,05,06,10,37,9.10
2010,05,06,10,38,9.10
2010,05,06,10,39,9.10
2010,05,06,10,40,9.10
2010,05,06,10,41,9.10
2010,05,06,10,42,9.10
2010,05,06,10,43,9.10
2010,05,06,10,44,9.10
2010,05,06,10,45,9.10
2010,05,06,10,46,9.10
2010,05,06,10,47,9.10
2010,05,06,10,48,9.10
2010,05,06,10,49,9.10
2010,05,06,10,50,9.10
2010,05,06,10,51,9.00
2010,05,06,10,52,9.00
2010,05,06,10,53,9.10
2010,05,06,10,54,9.10
2010,05,06,10,55,9.00
2010,05,06,10,56,9.00
2010,05,06,10,57,9.10
2010,05,06,10,58,9.10
2010,05,06,10,59,9.10
2010,05,06,11,00,9.10
2010,05,06,11,01,9.10
2010,05,06,11,02,9.10
2010,05,06,11,03,9.20
2010,05,06,11,04,9.20
2010,05,06,11,05,9.20
2010,05,06,11,06,9.20
2010,05,06,11,07,9.20
2010,05,06,11,08,9.30
2010,05,06,11,09,9.30
2010,05,06,11,10,9.30
2010,05,06,11,11,9.40
2010,05,06,11,12,9.40
2010,05,06,11,13,9.50
2010,05,06,11,14,9.60
2010,05,06,11,15,9.60
2010,05,06,11,16,9.70
2010,05,06,11,17,9.80
2010,05,06,11,18,9.80
2010,05,06,11,19,9.90
2010,05,06,11,20,9.90
2010,05,06,11,21,10.00
2010,05,06,11,22,10.10
2010,05,06,11,23,10.10
2010,05,06,11,24,10.20
2010,05,06,11,25,10.20
2010,05,06,11,26,10.20
2010,05,06,11,27,10.10
2010,05,06,11,28,10.00
2010,05,06,11,29,10.00
2010,05,06,11,30,10.00
2010,05,06,11,31,10.00
2010,05,06,11,32,10.10
2010,05,06,11,33,10.20
2010,05,06,11,34,10.30
2010,05,06,11,35,10.30
2010,05,06,11,36,10.30
2010,05,06,11,37,10.40
2010,05,06,11,38,10.40
2010,05,06,11,39,10.40
2010,05,06,11,40,10.50
2010,05,06,11,41,10.50
2010,05,06,11,42,10.60
2010,05,06,11,43,10.60
2010,05,06,11,44,10.60
2010,05,06,11,45,10.60
2010,05,06,11,46,10.60
2010,05,06,11,47,10.60
2010,05,06,11,48,10.70
2010,05,06,11,49,10.80
2010,05,06,11,50,10.80
2010,05,06,11,51,10.80
2010,05,06,11,52,10.80
2010,05,06,11,53,10.80
2010,05,06,11,54,10.80
2010,05,06,11,55,10.80
2010,05,06,11,56,10.80
2010,05,06,11,57,10.80
2010,05,06,11,58,10.80
2010,05,06,11,59,10.80
2010,05,06,12,00,10.70
2010,05,06,12,01,10.70
2010,05,06,12,02,10.70
2010,05,06,12,03,10.70
2010,05,06,12,04,10.80
2010,05,06,12,05,10.80
2010,05,06,12,06,10.80
2010,05,06,12,07,10.80
2010,05,06,12,08,10.60
2010,05,06,12,09,10.60
2010,05,06,12,10,10.80
2010,05,06,12,11,10.80
2010,05,06,12,12,10.90
2010,05,06,12,13,11.00
2010,05,06,12,14,11.00
2010,05,06,12,15,11.00
2010,05,06,12,16,11.10
2010,05,06,12,17,11.10
2010,05,06,12,18,11.10
2010,05,06,12,19,11.10
2010,05,06,12,20,11.00
2010,05,06,12,21,11.00
2010,05,06,12,22,11.00
2010,05,06,12,23,10.90
2010,05,06,12,24,10.80
2010,05,06,12,25,10.80
2010,05,06,12,26,10.80
2010,05,06,12,27,10.90
2010,05,06,12,28,10.90
2010,05,06,12,29,10.80
2010,05,06,12,30,10.80
2010,05,06,12,31,10.80
2010,05,06,12,32,10.90
2010,05,06,12,33,10.90
2010,05,06,12,34,11.00
2010,05,06,12,35,11.10
2010,05,06,12,36,11.10
2010,05,06,12,37,11.20
2010,05,06,12,38,11.20
2010,05,06,12,39,11.10
2010,05,06,12,40,11.10
2010,05,06,12,41,11.10
2010,05,06,12,42,11.00
2010,05,06,12,43,10.90
2010,05,06,12,44,10.90
2010,05,06,12,45,10.90
2010,05,06,12,46,10.90
2010,05,06,12,47,10.80
2010,05,06,12,48,10.80
2010,05,06,12,49,10.80
2010,05,06,12,50,10.80
2010,05,06,12,51,10.90
2010,05,06,12,52,10.80
2010,05,06,12,53,10.90
2010,05,06,12,54,10.90
2010,05,06,12,55,10.90
2010,05,06,12,56,10.90
2010,05,06,12,57,10.90
2010,05,06,12,58,10.90
2010,05,06,12,59,10.90
2010,05,06,13,00,10.90
2010,05,06,13,01,10.90
2010,05,06,13,02,10.80
2010,05,06,13,03,10.80
2010,05,06,13,04,10.80
2010,05,06,13,05,10.80
2010,05,06,13,06,10.80
2010,05,06,13,07,10.80
2010,05,06,13,08,10.80
2010,05,06,13,09,10.90
2010,05,06,13,10,10.90
2010,05,06,13,11,10.90
2010,05,06,13,12,10.90
2010,05,06,13,13,10.90
2010,05,06,13,14,10.90
2010,05,06,13,15,10.80
2010,05,06,13,16,10.80
2010,05,06,13,17,10.80
2010,05,06,13,18,10.80
2010,05,06,13,19,10.80
2010,05,06,13,20,10.80
2010,05,06,13,21,10.80
2010,05,06,13,22,10.80
2010,05,06,13,23,10.90
2010,05,06,13,24,10.90
2010,05,06,13,25,11.00
2010,05,06,13,26,11.10
2010,05,06,13,27,11.10
2010,05,06,13,28,11.20
2010,05,06,13,29,11.30
2010,05,06,13,30,11.40
2010,05,06,13,31,11.40
2010,05,06,13,32,11.40
2010,05,06,13,33,11.30
2010,05,06,13,34,11.30
2010,05,06,13,35,11.40
2010,05,06,13,36,11.40
2010,05,06,13,37,11.50
2010,05,06,13,38,11.50
2010,05,06,13,39,11.50
2010,05,06,13,40,11.50
2010,05,06,13,41,11.50
2010,05,06,13,42,11.50
2010,05,06,13,43,11.60
2010,05,06,13,44,11.60
2010,05,06,13,45,11.70
2010,05,06,13,46,11.70
2010,05,06,13,47,11.80
2010,05,06,13,48,11.80
2010,05,06,13,49,11.80
2010,05,06,13,50,11.80
2010,05,06,13,51,11.80
2010,05,06,13,52,11.80
2010,05,06,13,53,11.80
2010,05,06,13,54,11.80
2010,05,06,13,55,11.80
2010,05,06,13,56,11.70
2010,05,06,13,57,11.70
2010,05,06,13,58,11.80
2010,05,06,13,59,11.70
2010,05,06,14,00,11.70
2010,05,06,14,01,11.60
2010,05,06,14,02,11.60
2010,05,06,14,03,11.70
2010,05,06,14,04,11.80
2010,05,06,14,05,11.90
2010,05,06,14,06,12.10
2010,05,06,14,07,12.20
2010,05,06,14,08,12.30
2010,05,06,14,09,12.40
2010,05,06,14,10,12.40
2010,05,06,14,11,12.40
2010,05,06,14,12,12.40
2010,05,06,14,13,12.30
2010,05,06,14,14,12.40
2010,05,06,14,15,12.40
2010,05,06,14,16,12.50
2010,05,06,14,17,12.60
2010,05,06,14,18,12.70
2010,05,06,14,19,12.80
2010,05,06,14,20,12.80
2010,05,06,14,21,12.80
2010,05,06,14,22,12.70
2010,05,06,14,23,12.70
2010,05,06,14,24,12.80
2010,05,06,14,25,12.80
2010,05,06,14,26,12.80
2010,05,06,14,27,12.80
2010,05,06,14,28,12.80
2010,05,06,14,29,12.90
2010,05,06,14,30,12.90
2010,05,06,14,31,13.00
2010,05,06,14,32,12.90
2010,05,06,14,33,12.80
2010,05,06,14,34,12.90
2010,05,06,14,35,13.00
2010,05,06,14,36,13.00
2010,05,06,14,37,13.10
2010,05,06,14,38,13.20
2010,05,06,14,39,13.20
2010,05,06,14,40,13.10
2010,05,06,14,41,13.20
2010,05,06,14,42,13.20
2010,05,06,14,43,13.30
2010,05,06,14,44,13.40
2010,05,06,14,45,13.50
2010,05,06,14,46,13.60
2010,05,06,14,47,13.50
2010,05,06,14,48,13.50
2010,05,06,14,49,13.40
2010,05,06,14,50,13.50
2010,05,06,14,51,13.40
2010,05,06,14,52,13.30
2010,05,06,14,53,13.30
2010,05,06,14,54,13.20
2010,05,06,14,55,13.20
2010,05,06,14,56,13.20
2010,05,06,14,57,13.20
2010,05,06,14,58,13.30
2010,05,06,14,59,13.50
2010,05,06,15,00,13.70
2010,05,06,15,01,13.70
2010,05,06,15,02,13.70
2010,05,06,15,03,13.70
2010,05,06,15,04,13.70
2010,05,06,15,05,13.80
2010,05,06,15,06,13.80
2010,05,06,15,07,13.90
2010,05,06,15,08,13.90
2010,05,06,15,09,13.90
2010,05,06,15,10,14.00
2010,05,06,15,11,14.00
2010,05,06,15,12,13.90
2010,05,06,15,13,14.00
2010,05,06,15,14,14.10
2010,05,06,15,15,13.90
2010,05,06,15,16,13.60
2010,05,06,15,17,13.50
2010,05,06,15,18,13.50
2010,05,06,15,19,13.30
2010,05,06,15,20,13.10
2010,05,06,15,21,13.10
2010,05,06,15,22,13.10
2010,05,06,15,23,13.10
2010,05,06,15,24,13.10
2010,05,06,15,25,13.10
2010,05,06,15,26,13.10
2010,05,06,15,27,13.10
2010,05,06,15,28,13.10
2010,05,06,15,29,13.20
2010,05,06,15,30,13.30
2010,05,06,15,31,13.20
2010,05,06,15,32,13.20
2010,05,06,15,33,13.00
2010,05,06,15,34,12.90
2010,05,06,15,35,12.90
2010,05,06,15,36,12.90
2010,05,06,15,37,12.90
2010,05,06,15,38,12.80
2010,05,06,15,39,12.80
2010,05,06,15,40,12.80
2010,05,06,15,41,12.70
2010,05,06,15,42,12.60
2010,05,06,15,43,12.60
2010,05,06,15,44,12.60
2010,05,06,15,45,12.60
2010,05,06,15,46,12.70
2010,05,06,15,47,12.80
2010,05,06,15,48,12.90
2010,05,06,15,49,13.00
2010,05,06,15,50,13.10
2010,05,06,15,51,13.10
2010,05,06,15,52,13.00
2010,05,06,15,53,12.90
2010,05,06,15,54,12.90
2010,05,06,15,55,12.90
2010,05,06,15,56,12.90
2010,05,06,15,57,12.80
2010,05,06,15,58,12.60
2010,05,06,15,59,12.50
2010,05,06,16,00,12.40
2010,05,06,16,01,12.30
2010,05,06,16,02,12.30
2010,05,06,16,03,12.30
2010,05,06,16,04,12.40
2010,05,06,16,05,12.30
2010,05,06,16,06,12.30
2010,05,06,16,07,12.20
2010,05,06,16,08,12.20
2010,05,06,16,09,12.20
2010,05,06,16,10,12.30
2010,05,06,16,11,12.30
2010,05,06,16,12,12.30
2010,05,06,16,13,12.40
2010,05,06,16,14,12.50
2010,05,06,16,15,12.50
2010,05,06,16,16,12.60
2010,05,06,16,17,12.60
2010,05,06,16,18,12.60
2010,05,06,16,19,12.60
2010,05,06,16,20,12.50
2010,05,06,16,21,12.50
2010,05,06,16,22,12.60
2010,05,06,16,23,12.60
2010,05,06,16,24,12.70
2010,05,06,16,25,12.70
2010,05,06,16,26,12.90
2010,05,06,16,27,13.00
2010,05,06,16,28,13.10
2010,05,06,16,29,13.20
2010,05,06,16,30,13.30
2010,05,06,16,31,13.30
2010,05,06,16,32,13.30
2010,05,06,16,33,13.40
2010,05,06,16,34,13.60
2010,05,06,16,35,13.60
2010,05,06,16,36,13.50
2010,05,06,16,37,13.50
2010,05,06,16,38,13.40
2010,05,06,16,39,13.50
2010,05,06,16,40,13.30
2010,05,06,16,41,13.20
2010,05,06,16,42,13.20
2010,05,06,16,43,13.20
2010,05,06,16,44,13.10
2010,05,06,16,45,13.00
2010,05,06,16,46,13.00
2010,05,06,16,47,12.90
2010,05,06,16,48,12.90
2010,05,06,16,49,12.80
2010,05,06,16,50,12.80
2010,05,06,16,51,12.70
2010,05,06,16,52,12.70
2010,05,06,16,53,12.60
2010,05,06,16,54,12.60
2010,05,06,16,55,12.70
2010,05,06,16,56,12.80
2010,05,06,16,57,12.80
2010,05,06,16,58,12.80
2010,05,06,16,59,12.70
2010,05,06,17,00,12.60
2010,05,06,17,01,12.60
2010,05,06,17,02,12.60
2010,05,06,17,03,12.50
2010,05,06,17,04,12.50
2010,05,06,17,05,12.50
2010,05,06,17,06,12.50
2010,05,06,17,07,12.50
2010,05,06,17,08,12.60
2010,05,06,17,09,12.60
2010,05,06,17,10,12.70
2010,05,06,17,11,12.80
2010,05,06,17,12,12.90
2010,05,06,17,13,12.90
2010,05,06,17,14,13.10
2010,05,06,17,15,13.10
2010,05,06,17,16,13.10
2010,05,06,17,17,13.10
2010,05,06,17,18,13.00
2010,05,06,17,19,13.00
2010,05,06,17,20,13.00
2010,05,06,17,21,13.10
2010,05,06,17,22,13.20
2010,05,06,17,23,13.30
2010,05,06,17,24,13.20
2010,05,06,17,25,13.20
2010,05,06,17,26,13.10
2010,05,06,17,27,13.00
2010,05,06,17,28,13.00
2010,05,06,17,29,12.90
2010,05,06,17,30,13.00
2010,05,06,17,31,13.00
2010,05,06,17,32,13.00
2010,05,06,17,33,13.20
2010,05,06,17,34,13.30
2010,05,06,17,35,13.40
2010,05,06,17,36,13.50
2010,05,06,17,37,13.60
2010,05,06,17,38,13.60
2010,05,06,17,39,13.50
2010,05,06,17,40,13.50
2010,05,06,17,41,13.50
2010,05,06,17,42,13.50
2010,05,06,17,43,13.40
2010,05,06,17,44,13.30
2010,05,06,17,45,13.40
2010,05,06,17,46,13.40
2010,05,06,17,47,13.40
2010,05,06,17,48,13.50
2010,05,06,17,49,13.50
2010,05,06,17,50,13.40
2010,05,06,17,51,13.40